Regional Weather Roundup
Issued by NWS Burlington, VT

Home | Current Version | Previous Version | Text Only | Print | Product List | Glossary On
Versions: 1 2 3 4 5 6 7 8 9 10 11 12 13 14 15 16 17 18 19 20 21 22 23 24 25 26 27 28 29 30 31 32 33 34 35 36 37 38 39 40 41 42 43 44 45 46 47 48 49 50
000
ASUS41 KBTV 300330
RWRBTV
VERMONT REGIONAL WEATHER ROUNDUP
NATIONAL WEATHER SERVICE BURLINGTON VT
1100 PM EDT MON JUN 29 2015

NOTE: "FAIR" INDICATES FEW OR NO CLOUDS BELOW 12,000 FEET WITH NO
SIGNIFICANT WEATHER AND/OR OBSTRUCTIONS TO VISIBILITY.

* THESE REPORTS ARE NOT UNDER NWS QUALITY CONTROL AND/OR DO NOT
  REPORT WEATHER SUCH AS PRECIPITATION AND FOG.

VTZ001>019-300400-
_____VERMONT_____


CITY           SKY/WX    TMP DP  RH WIND       PRES   REMARKS
BURLINGTON     CLOUDY    62  58  86 S3        29.92R
MONTPELIER     CLOUDY    58  55  90 SW3       29.96R
MORRISVILLE    CLOUDY    62  57  83 CALM      29.93R
ST. JOHNSBURY*   N/A     62  56  80 MISG      29.89S
LYNDONVILLE*   CLOUDY    59  54  83 CALM      29.93S
MIDDLEBURY*    CLOUDY    60  60 100 CALM      29.92S
RUTLAND*       CLOUDY    61  57  88 CALM      29.94S
SPRINGFIELD    CLOUDY    61  59  93 CALM      29.93R
HIGHGATE*      CLOUDY    59  57  94 CALM      29.90S
NEWPORT*       CLOUDY    58  55  91 SW7       29.92S
BENNINGTON     MOCLDY    60  56  86 SW5       29.95R
SUTTON*          N/A     57 N/A N/A MISG        N/A
GALLUP MILLS*    N/A     55 N/A N/A MISG        N/A
MT. MANSFIELD*   N/A     48 N/A N/A NW14        N/A

_____LAKE CHAMPLAIN_____


CITY           SKY/WX    TMP DP  RH WIND       PRES   REMARKS
BURTON ISLAND*   N/A     64  59  82 S6          N/A
COLCHESTER RF*   N/A     64  59  82 SW5         N/A
DIAMOND ISL*     N/A    N/A N/A N/A SW1         N/A

$$

NYZ007-026>031-035-052-083-300400-
_____NORTHERN NEW YORK_____


CITY           SKY/WX    TMP DP  RH WIND       PRES   REMARKS
PLATTSBURGH    CLEAR     59  58  96 CALM      29.90R
SARANAC LAKE   PTCLDY    50  49  96 CALM      29.94R FOG
MASSENA        CLEAR     57  55  93 SW7       29.91R
OGDENSBURG*    CLEAR     57  55  94 S3        29.91S
POTSDAM*       CLEAR     57  57 100 SW5       29.93R
STARK FALLS*     N/A     61 N/A N/A S2          N/A
WATERTOWN      PTCLDY    57  53  86 SE5       29.93R
FT DRUM        PTCLDY    57  55  91 S7        29.93R
ALBANY         MOCLDY    62  57  83 SW3       29.95R
GLENS FALLS    PTCLDY    59  57  93 CALM      29.92R

$$
NHZ002-005-011-300400-
_____NEW HAMPSHIRE_____


CITY           SKY/WX    TMP DP  RH WIND       PRES   REMARKS
LEBANON        CLOUDY    62  58  86 CALM      29.92R
KEENE          PTCLDY    61  55  82 SW5       29.94R
MT WASHINGTON  DRZL/FOG  41  41 100 W30         N/A  VSB 1/16WCI  30
PLYMOUTH       CLOUDY    60  60 100 CALM      29.92R
WHITEFIELD     CLOUDY    60  56  86 SW3       29.92R

$$

_____REGIONAL QUEBEC LOCATIONS_____


CITY           SKY/WX    TMP DP  RH WIND       PRES   REMARKS
MONTREAL       PTCLDY    63  57  82 S9        29.88S
QUEBEC CITY    MOCLDY    59  55  88 SW3       29.85S
SHERBROOKE     CLOUDY    55  54  94 N3        29.90R

_____REGIONAL ONTARIO LOCATIONS_____


CITY           SKY/WX    TMP DP  RH WIND       PRES   REMARKS
OTTAWA         PTCLDY    61  59  94 S7        29.89R

______KEY______
VSB  - VISIBILITY IN MILES
WCI  - WIND CHILL INDEX
HX   - HEAT INDEX
$$
NNNN



USA.gov is the U.S. government's official web portal to all federal, state and local government web resources and services.